Location: Beaver Brook Station
(42.3793°N, 71.2203°W)
Time: 01:44:28
(UTC+00:00)

Cosmos 1076 Rocket - Pass Details

Date: 29 October 2020
Orbit: 590 x 612 km, 82.5° (Epoch: 05 December)

Event Time Altitude Azimuth Distance (km) Brightness Sun altitude
Rises 23:18:21 0° 353° (N) 2,833 7.0 -18.4°
Reaches altitude 10° 23:20:34 10° 355° (N) 1,929 6.1 -18.8°
Maximum altitude 23:24:49 75° 81° (E) 617 3.3 -19.6°
Drops below altitude 10° 23:29:04 10° 168° (SSE) 1,921 6.0 -20.4°
Sets 23:31:16 0° 169° (S) 2,821 6.8 -20.8°
